,,PressureMeas_1m,,PRMeasQMR101_1,,RHStat155_1m_1,,SRMeasQMS101R_1m,,TAStat155_1m_1,,GenWind_1,,GenWind_1,
2017-06-21, 07:00:06,VALID,917.869,VALID,0.0,VALID,94.438,VALID,109.345,VALID,18.12,VALID,142.0,VALID,1.197,
2017-06-21, 07:01:06,VALID,917.864,VALID,0.0,VALID,94.514,VALID,103.69,VALID,18.116,VALID,140.0,VALID,0.993,
2017-06-21, 07:02:06,VALID,917.873,VALID,0.0,VALID,94.538,VALID,97.408,VALID,18.14,VALID,135.0,VALID,0.902,
2017-06-21, 07:03:06,VALID,917.893,VALID,0.0,VALID,94.559,VALID,92.948,VALID,18.203,VALID,132.0,VALID,0.905,
2017-06-21, 07:04:06,VALID,917.902,VALID,0.0,VALID,94.178,VALID,91.7,VALID,18.263,VALID,140.0,VALID,1.062,
2017-06-21, 07:05:06,VALID,917.909,VALID,0.0,VALID,93.683,VALID,92.313,VALID,18.333,VALID,142.0,VALID,1.004,
2017-06-21, 07:06:06,VALID,917.932,VALID,0.0,VALID,93.716,VALID,92.051,VALID,18.377,VALID,142.0,VALID,1.009,
2017-06-21, 07:07:06,VALID,917.915,VALID,0.0,VALID,93.326,VALID,91.268,VALID,18.386,VALID,131.0,VALID,1.401,
2017-06-21, 07:08:06,VALID,917.912,VALID,0.0,VALID,92.818,VALID,90.941,VALID,18.465,VALID,122.0,VALID,1.446,
2017-06-21, 07:09:06,VALID,917.903,VALID,0.0,VALID,92.718,VALID,90.411,VALID,18.536,VALID,123.0,VALID,1.224,
2017-06-21, 07:10:06,VALID,917.907,VALID,0.0,VALID,92.77,VALID,89.75,VALID,18.572,VALID,112.0,VALID,1.09,
2017-06-21, 07:11:06,VALID,917.903,VALID,0.0,VALID,92.452,VALID,89.123,VALID,18.603,VALID,111.0,VALID,1.212,
2017-06-21, 07:12:06,VALID,917.921,VALID,0.0,VALID,92.163,VALID,88.815,VALID,18.659,VALID,112.0,VALID,1.103,
2017-06-21, 07:13:06,VALID,917.903,VALID,0.0,VALID,92.086,VALID,88.355,VALID,18.678,VALID,116.0,VALID,1.3,
2017-06-21, 07:14:06,VALID,917.915,VALID,0.0,VALID,92.035,VALID,86.956,VALID,18.686,VALID,124.0,VALID,1.293,
2017-06-21, 07:15:06,VALID,917.907,VALID,0.0,VALID,92.153,VALID,85.379,VALID,18.696,VALID,127.0,VALID,1.285,
2017-06-21, 07:16:06,VALID,917.916,VALID,0.0,VALID,92.098,VALID,83.761,VALID,18.711,VALID,126.0,VALID,1.535,
2017-06-21, 07:17:06,VALID,917.92,VALID,0.0,VALID,91.26,VALID,82.367,VALID,18.74,VALID,118.0,VALID,1.586,
2017-06-21, 07:18:06,VALID,917.95,VALID,0.0,VALID,91.107,VALID,81.431,VALID,18.744,VALID,119.0,VALID,1.736,
2017-06-21, 07:19:06,VALID,917.972,VALID,0.0,VALID,91.382,VALID,80.459,VALID,18.712,VALID,119.0,VALID,1.498,
2017-06-21, 07:20:06,VALID,917.992,VALID,0.0,VALID,91.22,VALID,79.804,VALID,18.712,VALID,124.0,VALID,1.266,
2017-06-21, 07:21:06,VALID,918.014,VALID,0.0,VALID,91.189,VALID,79.9,VALID,18.722,VALID,122.0,VALID,1.323,
2017-06-21, 07:22:06,VALID,918.026,VALID,0.0,VALID,90.928,VALID,79.819,VALID,18.73,VALID,130.0,VALID,1.431,
2017-06-21, 07:23:06,VALID,918.041,VALID,0.0,VALID,90.892,VALID,80.026,VALID,18.742,VALID,128.0,VALID,1.491,
2017-06-21, 07:24:06,VALID,918.061,VALID,0.0,VALID,91.047,VALID,81.178,VALID,18.741,VALID,126.0,VALID,1.568,
2017-06-21, 07:25:06,VALID,918.083,VALID,0.0,VALID,91.165,VALID,82.638,VALID,18.741,VALID,129.0,VALID,1.518,
2017-06-21, 07:26:06,VALID,918.091,VALID,0.0,VALID,91.071,VALID,83.821,VALID,18.75,VALID,137.0,VALID,1.614,
2017-06-21, 07:27:06,VALID,918.11,VALID,0.0,VALID,90.998,VALID,86.192,VALID,18.753,VALID,131.0,VALID,1.555,
2017-06-21, 07:28:06,VALID,918.12,VALID,0.0,VALID,91.229,VALID,88.798,VALID,18.746,VALID,125.0,VALID,1.382,
2017-06-21, 07:29:06,VALID,918.123,VALID,0.0,VALID,90.793,VALID,90.435,VALID,18.761,VALID,128.0,VALID,1.407,
2017-06-21, 07:30:06,VALID,918.139,VALID,0.0,VALID,90.666,VALID,91.149,VALID,18.8,VALID,129.0,VALID,0.982,
2017-06-21, 07:31:06,VALID,918.145,VALID,0.0,VALID,90.986,VALID,95.083,VALID,18.792,VALID,132.0,VALID,1.093,
2017-06-21, 07:32:06,VALID,918.149,VALID,0.0,VALID,91.139,VALID,99.097,VALID,18.769,VALID,135.0,VALID,1.083,
2017-06-21, 07:33:06,VALID,918.155,VALID,0.0,VALID,90.929,VALID,103.043,VALID,18.779,VALID,136.0,VALID,1.463,
2017-06-21, 07:34:06,VALID,918.167,VALID,0.0,VALID,90.661,VALID,109.293,VALID,18.83,VALID,133.0,VALID,1.396,
2017-06-21, 07:35:06,VALID,918.18,VALID,0.0,VALID,90.808,VALID,117.008,VALID,18.85,VALID,128.0,VALID,1.359,
2017-06-21, 07:36:06,VALID,918.177,VALID,0.0,VALID,90.866,VALID,122.365,VALID,18.887,VALID,126.0,VALID,1.032,
2017-06-21, 07:37:06,VALID,918.193,VALID,0.0,VALID,90.87,VALID,128.909,VALID,18.917,VALID,130.0,VALID,1.282,
2017-06-21, 07:38:06,VALID,918.22,VALID,0.0,VALID,90.348,VALID,134.928,VALID,18.962,VALID,120.0,VALID,1.031,
2017-06-21, 07:39:06,VALID,918.229,VALID,0.0,VALID,90.385,VALID,142.214,VALID,19.005,VALID,121.0,VALID,1.207,
2017-06-21, 07:40:06,VALID,918.236,VALID,0.0,VALID,90.128,VALID,147.967,VALID,19.078,VALID,124.0,VALID,1.221,
2017-06-21, 07:41:06,VALID,918.242,VALID,0.0,VALID,89.49,VALID,158.839,VALID,19.155,VALID,133.0,VALID,1.369,
2017-06-21, 07:42:06,VALID,918.254,VALID,0.0,VALID,89.177,VALID,172.972,VALID,19.241,VALID,130.0,VALID,0.969,
2017-06-21, 07:43:06,VALID,918.259,VALID,0.0,VALID,89.467,VALID,181.606,VALID,19.302,VALID,132.0,VALID,0.88,
2017-06-21, 07:44:06,VALID,918.274,VALID,0.0,VALID,89.472,VALID,185.541,VALID,19.36,VALID,138.0,VALID,0.79,
2017-06-21, 07:45:06,VALID,918.294,VALID,0.0,VALID,89.115,VALID,207.421,VALID,19.428,VALID,132.0,VALID,0.854,
2017-06-21, 07:46:06,VALID,918.307,VALID,0.0,VALID,88.727,VALID,217.083,VALID,19.523,VALID,131.0,VALID,0.45,
2017-06-21, 07:47:06,VALID,918.314,VALID,0.0,VALID,88.885,VALID,229.802,VALID,19.616,VALID,150.0,VALID,0.725,
2017-06-21, 07:48:06,VALID,918.316,VALID,0.0,VALID,86.982,VALID,234.194,VALID,19.646,VALID,147.0,VALID,1.209,
2017-06-21, 07:49:06,VALID,918.315,VALID,0.0,VALID,86.797,VALID,243.896,VALID,19.685,VALID,133.0,VALID,1.041,
2017-06-21, 07:50:06,VALID,918.305,VALID,0.0,VALID,86.516,VALID,245.539,VALID,19.763,VALID,130.0,VALID,0.962,
2017-06-21, 07:51:06,VALID,918.3,VALID,0.0,VALID,86.867,VALID,247.539,VALID,19.835,VALID,135.0,VALID,0.602,
2017-06-21, 07:52:06,VALID,918.304,VALID,0.0,VALID,86.656,VALID,267.815,VALID,19.934,VALID,127.0,VALID,0.502,
2017-06-21, 07:53:06,VALID,918.32,VALID,0.0,VALID,86.26,VALID,261.551,VALID,20.071,VALID,140.0,VALID,0.615,
2017-06-21, 07:54:06,VALID,918.339,VALID,0.0,VALID,86.339,VALID,236.168,VALID,20.182,VALID,161.0,VALID,0.671,
2017-06-21, 07:55:06,VALID,918.37,VALID,0.0,VALID,85.036,VALID,243.191,VALID,20.229,VALID,162.0,VALID,0.835,
2017-06-21, 07:56:06,VALID,918.4,VALID,0.0,VALID,84.033,VALID,246.713,VALID,20.229,VALID,150.0,VALID,1.27,
2017-06-21, 07:57:06,VALID,918.424,VALID,0.0,VALID,84.698,VALID,262.464,VALID,20.184,VALID,148.0,VALID,1.445,
2017-06-21, 07:58:06,VALID,918.449,VALID,0.0,VALID,83.988,VALID,240.873,VALID,20.158,VALID,151.0,VALID,1.501,
2017-06-21, 07:59:06,VALID,918.478,VALID,0.0,VALID,84.325,VALID,218.348,VALID,20.135,VALID,150.0,VALID,1.559,
2017-06-21, 08:00:06,VALID,918.512,VALID,0.0,VALID,84.605,VALID,225.462,VALID,20.086,VALID,148.0,VALID,1.452,
2017-06-21, 08:01:06,VALID,918.535,VALID,0.0,VALID,84.783,VALID,229.626,VALID,20.01,VALID,151.0,VALID,1.409,
2017-06-21, 08:02:06,VALID,918.555,VALID,0.0,VALID,85.423,VALID,292.15,VALID,19.969,VALID,158.0,VALID,1.099,
2017-06-21, 08:03:06,VALID,918.584,VALID,0.0,VALID,84.957,VALID,318.371,VALID,19.965,VALID,153.0,VALID,1.212,
2017-06-21, 08:04:06,VALID,918.595,VALID,0.0,VALID,85.612,VALID,331.556,VALID,19.997,VALID,161.0,VALID,0.74,
2017-06-21, 08:05:06,VALID,918.614,VALID,0.0,VALID,86.076,VALID,340.715,VALID,20.148,VALID,163.0,VALID,0.552,
2017-06-21, 08:06:06,VALID,918.627,VALID,0.0,VALID,84.628,VALID,352.997,VALID,20.279,VALID,150.0,VALID,1.066,
2017-06-21, 08:07:06,VALID,918.632,VALID,0.0,VALID,82.694,VALID,362.176,VALID,20.326,VALID,144.0,VALID,0.95,
2017-06-21, 08:08:06,VALID,918.635,VALID,0.0,VALID,83.889,VALID,384.065,VALID,20.393,VALID,144.0,VALID,1.03,
2017-06-21, 08:09:06,VALID,918.643,VALID,0.0,VALID,83.325,VALID,386.56,VALID,20.433,VALID,147.0,VALID,0.944,
2017-06-21, 08:10:06,VALID,918.641,VALID,0.0,VALID,83.378,VALID,400.069,VALID,20.51,VALID,140.0,VALID,1.026,
2017-06-21, 08:11:06,VALID,918.633,VALID,0.0,VALID,82.807,VALID,402.546,VALID,20.585,VALID,151.0,VALID,0.913,
2017-06-21, 08:12:06,VALID,918.621,VALID,0.0,VALID,83.262,VALID,409.532,VALID,20.667,VALID,150.0,VALID,1.002,
2017-06-21, 08:13:06,VALID,918.616,VALID,0.0,VALID,83.517,VALID,414.26,VALID,20.788,VALID,136.0,VALID,0.959,
2017-06-21, 08:14:06,VALID,918.603,VALID,0.0,VALID,82.938,VALID,416.795,VALID,20.88,VALID,109.0,VALID,1.193,
2017-06-21, 08:15:06,VALID,918.579,VALID,0.0,VALID,82.909,VALID,418.489,VALID,20.914,VALID,112.0,VALID,1.327,
2017-06-21, 08:16:06,VALID,918.585,VALID,0.0,VALID,82.615,VALID,380.525,VALID,20.951,VALID,108.0,VALID,0.995,
2017-06-21, 08:17:06,VALID,918.597,VALID,0.0,VALID,83.549,VALID,360.603,VALID,21.045,VALID,123.0,VALID,0.625,
2017-06-21, 08:18:06,VALID,918.602,VALID,0.0,VALID,82.939,VALID,345.081,VALID,21.194,VALID,145.0,VALID,0.296,
2017-06-21, 08:19:06,VALID,918.624,VALID,0.0,VALID,81.296,VALID,357.009,VALID,21.327,VALID,160.0,VALID,0.611,
2017-06-21, 08:20:06,VALID,918.646,VALID,0.0,VALID,80.563,VALID,352.497,VALID,21.451,VALID,160.0,VALID,0.339,
2017-06-21, 08:21:06,VALID,918.64,VALID,0.0,VALID,79.356,VALID,350.188,VALID,21.589,VALID,178.0,VALID,0.461,
2017-06-21, 08:22:06,VALID,918.633,VALID,0.0,VALID,78.865,VALID,348.205,VALID,21.691,VALID,175.0,VALID,0.532,
2017-06-21, 08:23:06,VALID,918.623,VALID,0.0,VALID,79.04,VALID,316.012,VALID,21.805,VALID,165.0,VALID,0.518,
2017-06-21, 08:24:06,VALID,918.619,VALID,0.0,VALID,78.363,VALID,365.305,VALID,21.935,VALID,150.0,VALID,0.384,
2017-06-21, 08:25:06,VALID,918.624,VALID,0.0,VALID,78.007,VALID,415.938,VALID,22.01,VALID,139.0,VALID,0.498,
2017-06-21, 08:26:06,VALID,918.641,VALID,0.0,VALID,77.082,VALID,414.334,VALID,22.03,VALID,138.0,VALID,0.507,
2017-06-21, 08:27:06,VALID,918.66,VALID,0.0,VALID,76.898,VALID,393.234,VALID,21.977,VALID,148.0,VALID,0.369,
2017-06-21, 08:28:06,VALID,918.69,VALID,0.0,VALID,78.195,VALID,295.366,VALID,22.012,VALID,170.0,VALID,0.315,
2017-06-21, 08:29:06,VALID,918.695,VALID,0.0,VALID,77.333,VALID,433.057,VALID,22.101,VALID,143.0,VALID,0.425,
2017-06-21, 08:30:06,VALID,918.71,VALID,0.0,VALID,77.175,VALID,462.764,VALID,22.163,VALID,144.0,VALID,0.47,
2017-06-21, 08:31:06,VALID,918.711,VALID,0.0,VALID,76.96,VALID,431.501,VALID,22.204,VALID,137.0,VALID,0.224,
2017-06-21, 08:32:06,VALID,918.706,VALID,0.0,VALID,77.072,VALID,456.033,VALID,22.358,VALID,188.0,VALID,0.094,
2017-06-21, 08:33:06,VALID,918.699,VALID,0.0,VALID,76.183,VALID,484.036,VALID,22.55,VALID,138.0,VALID,0.227,
2017-06-21, 08:34:06,VALID,918.692,VALID,0.0,VALID,74.332,VALID,476.44,VALID,22.701,VALID,87.0,VALID,0.008,
2017-06-21, 08:35:06,VALID,918.679,VALID,0.0,VALID,74.282,VALID,449.734,VALID,23.095,VALID,50.0,VALID,0.011,
2017-06-21, 08:36:06,VALID,918.674,VALID,0.0,VALID,73.02,VALID,485.291,VALID,23.505,VALID,53.0,VALID,0.059,
2017-06-21, 08:37:06,VALID,918.669,VALID,0.0,VALID,71.978,VALID,508.245,VALID,23.814,VALID,18.0,VALID,0.023,
2017-06-21, 08:38:06,VALID,918.68,VALID,0.0,VALID,71.089,VALID,510.794,VALID,24.086,VALID,13.0,VALID,0.073,
2017-06-21, 08:39:06,VALID,918.7,VALID,0.0,VALID,70.46,VALID,528.275,VALID,24.259,VALID,15.0,VALID,0.013,
2017-06-21, 08:40:06,VALID,918.716,VALID,0.0,VALID,70.179,VALID,536.144,VALID,24.521,VALID,29.0,VALID,0.041,
2017-06-21, 08:41:06,VALID,918.73,VALID,0.0,VALID,69.306,VALID,561.95,VALID,24.606,VALID,66.0,VALID,0.645,
2017-06-21, 08:42:06,VALID,918.755,VALID,0.0,VALID,69.184,VALID,569.868,VALID,24.52,VALID,18.0,VALID,1.046,
2017-06-21, 08:43:06,VALID,918.756,VALID,0.0,VALID,69.984,VALID,594.093,VALID,24.261,VALID,348.0,VALID,0.495,
2017-06-21, 08:44:06,VALID,918.762,VALID,0.0,VALID,71.118,VALID,613.874,VALID,24.13,VALID,47.0,VALID,0.625,
2017-06-21, 08:45:06,VALID,918.755,VALID,0.0,VALID,72.979,VALID,639.038,VALID,23.975,VALID,36.0,VALID,0.689,
2017-06-21, 08:46:06,VALID,918.747,VALID,0.0,VALID,72.277,VALID,619.979,VALID,24.087,VALID,82.0,VALID,0.411,
2017-06-21, 08:47:06,VALID,918.748,VALID,0.0,VALID,71.112,VALID,659.42,VALID,24.081,VALID,78.0,VALID,0.082,
2017-06-21, 08:48:06,VALID,918.743,VALID,0.0,VALID,70.772,VALID,589.081,VALID,24.239,VALID,94.0,VALID,0.03,
2017-06-21, 08:49:06,VALID,918.734,VALID,0.0,VALID,70.949,VALID,457.545,VALID,24.514,VALID,86.0,VALID,0.24,
2017-06-21, 08:50:06,VALID,918.732,VALID,0.0,VALID,69.787,VALID,393.392,VALID,24.587,VALID,49.0,VALID,0.668,
2017-06-21, 08:51:06,VALID,918.745,VALID,0.0,VALID,69.12,VALID,447.991,VALID,24.106,VALID,46.0,VALID,0.395,
2017-06-21, 08:52:06,VALID,918.76,VALID,0.0,VALID,69.49,VALID,441.888,VALID,23.86,VALID,44.0,VALID,0.073,
2017-06-21, 08:53:06,VALID,918.75,VALID,0.0,VALID,71.115,VALID,339.098,VALID,23.989,VALID,360.0,VALID,0.042,
2017-06-21, 08:54:06,VALID,918.75,VALID,0.0,VALID,71.178,VALID,352.976,VALID,24.139,VALID,151.0,VALID,0.304,
2017-06-21, 08:55:06,VALID,918.737,VALID,0.0,VALID,72.441,VALID,416.21,VALID,24.106,VALID,154.0,VALID,0.396,
2017-06-21, 08:56:06,VALID,918.742,VALID,0.0,VALID,73.165,VALID,358.306,VALID,24.039,VALID,99.0,VALID,0.548,
2017-06-21, 08:57:06,VALID,918.734,VALID,0.0,VALID,71.348,VALID,341.466,VALID,23.935,VALID,72.0,VALID,0.388,
2017-06-21, 08:58:06,VALID,918.742,VALID,0.0,VALID,73.671,VALID,327.044,VALID,23.941,VALID,56.0,VALID,0.202,
2017-06-21, 08:59:06,VALID,918.749,VALID,0.0,VALID,74.268,VALID,334.934,VALID,23.95,VALID,97.0,VALID,0.322,
2017-06-21, 09:00:06,VALID,918.77,VALID,0.0,VALID,74.434,VALID,324.029,VALID,23.9,VALID,105.0,VALID,0.208,
2017-06-21, 09:01:06,VALID,918.777,VALID,0.0,VALID,74.28,VALID,334.547,VALID,23.846,VALID,67.0,VALID,0.535,
2017-06-21, 09:02:06,VALID,918.777,VALID,0.0,VALID,73.8,VALID,336.323,VALID,23.632,VALID,44.0,VALID,0.907,
2017-06-21, 09:03:06,VALID,918.78,VALID,0.0,VALID,76.396,VALID,339.768,VALID,23.497,VALID,63.0,VALID,0.321,
2017-06-21, 09:04:06,VALID,918.784,VALID,0.0,VALID,76.759,VALID,367.737,VALID,23.469,VALID,72.0,VALID,0.744,
2017-06-21, 09:05:06,VALID,918.797,VALID,0.0,VALID,77.181,VALID,423.995,VALID,23.557,VALID,25.0,VALID,0.543,
2017-06-21, 09:06:06,VALID,918.81,VALID,0.0,VALID,76.503,VALID,456.641,VALID,23.78,VALID,12.0,VALID,0.405,
2017-06-21, 09:07:06,VALID,918.834,VALID,0.0,VALID,74.83,VALID,475.193,VALID,23.955,VALID,334.0,VALID,0.475,
2017-06-21, 09:08:06,VALID,918.831,VALID,0.0,VALID,73.893,VALID,421.419,VALID,23.967,VALID,351.0,VALID,0.523,
2017-06-21, 09:09:06,VALID,918.844,VALID,0.0,VALID,74.308,VALID,378.996,VALID,23.894,VALID,6.0,VALID,0.341,
2017-06-21, 09:10:06,VALID,918.832,VALID,0.0,VALID,72.677,VALID,370.724,VALID,23.926,VALID,302.0,VALID,0.237,
2017-06-21, 09:11:06,VALID,918.83,VALID,0.0,VALID,71.208,VALID,344.575,VALID,23.929,VALID,349.0,VALID,0.733,
